Date String (YYYY-MM-DD hh:mm:ss) UTC,Instrument flags,Ambient pressure (hPa),Sample flow (lpm),Bypass flow (lpm),Sample temperature (°C),Ambient temperature (°C),ASC tube jacket temperature (°C),LED temperature (°C),Box temperature (°C),Sample RH (%),Span deviation,Mass concentration (μg/m³),Mass concentration (μg/m³),Mass concentration (μg/m³)
DateTimeUTC,F1_M11,P_M11,Q1_M11,Q2_M11,T1_M11,T2_M11,T3_M11,T4_M11,T5_M11,U1_M11,ZSPAN_M11,X0_M11,X2_M11,X1_M11
2022-11-10 08:00:00,,0819.3,5.00,0.00,22.3,20.8,00.0,31.3,24.1,13.8,0000.0,0004.27,0002.10,0001.68
2022-11-10 08:01:00,,0819.3,5.00,0.00,22.3,20.8,00.0,31.2,24.1,13.5,0000.0,0003.37,0001.37,0001.00
2022-11-10 08:02:00,,0819.3,4.99,0.00,22.3,20.8,00.0,31.2,24.1,13.3,0000.0,0002.65,0000.71,0000.38
2022-11-10 08:03:00,,0819.2,5.00,0.00,22.3,20.7,00.0,31.2,24.0,13.3,0000.0,0002.15,0000.42,0000.16
2022-11-10 08:04:00,,0819.2,4.99,0.00,22.3,20.7,00.0,31.2,24.0,13.4,0000.0,0002.20,0000.44,0000.15
2022-11-10 08:05:00,,0819.3,5.00,0.00,22.2,20.6,00.0,31.2,24.0,13.3,0000.0,0002.00,0000.47,0000.16
2022-11-10 08:06:00,,0819.3,5.00,0.00,22.2,20.6,00.0,31.2,23.9,13.2,0000.0,0003.58,0000.48,0000.15
2022-11-10 08:07:00,,0819.3,5.00,0.00,22.2,20.6,00.0,31.2,23.9,13.2,0000.0,0005.79,0000.51,0000.15
2022-11-10 08:08:00,,0819.3,5.01,0.00,22.2,21.3,00.0,31.1,24.1,13.0,0000.0,0006.16,0000.51,0000.15
2022-11-10 08:09:00,,0819.4,4.99,0.00,22.3,22.2,00.0,31.1,24.4,12.9,0000.0,0005.86,0000.52,0000.15
2022-11-10 08:10:00,,0819.3,4.99,0.00,22.4,22.0,00.0,31.1,24.4,12.9,0000.0,0005.70,0000.55,0000.16
2022-11-10 08:11:00,,0819.4,5.01,0.00,22.4,21.7,00.0,31.1,24.3,12.8,0000.0,0006.36,0000.56,0000.16
2022-11-10 08:12:00,,0819.5,5.00,0.00,22.4,21.4,00.0,31.2,24.2,12.9,0000.0,0007.70,0000.55,0000.17
2022-11-10 08:13:00,,0819.4,5.00,0.00,22.4,21.2,00.0,31.2,24.2,13.0,0000.0,0008.02,0000.55,0000.17
2022-11-10 08:14:00,,0819.4,5.00,0.00,22.3,21.0,00.0,31.2,24.1,12.9,0000.0,0008.03,0000.55,0000.17
2022-11-10 08:15:00,,0819.4,5.01,0.00,22.3,20.9,00.0,31.2,24.1,13.2,0000.0,0008.00,0000.52,0000.17
2022-11-10 08:16:00,,0819.2,4.99,0.00,22.3,20.8,00.0,31.2,24.1,13.2,0000.0,0008.07,0000.52,0000.16
2022-11-10 08:17:00,,0819.2,4.99,0.00,22.3,20.7,00.0,31.2,24.0,13.2,0000.0,0007.36,0000.56,0000.17
2022-11-10 08:18:00,,0819.2,5.01,0.00,22.2,20.6,00.0,31.2,23.9,13.3,0000.0,0006.17,0000.65,0000.18
2022-11-10 08:19:00,,0819.3,5.01,0.00,22.2,20.5,00.0,31.1,23.9,13.5,0000.0,0006.41,0000.68,0000.18
2022-11-10 08:20:00,,0819.3,5.01,0.00,22.2,20.4,00.0,31.1,23.9,13.6,0000.0,0007.08,0000.66,0000.18
2022-11-10 08:21:00,,0819.3,5.00,0.00,22.1,20.3,00.0,31.1,23.8,13.7,0000.0,0007.44,0000.63,0000.17
2022-11-10 08:22:00,,0819.3,4.98,0.00,22.1,20.2,00.0,31.0,23.8,13.7,0000.0,0006.86,0000.65,0000.18
2022-11-10 08:23:00,,0819.3,5.00,0.00,22.1,20.4,00.0,31.0,23.8,13.8,0000.0,0005.60,0000.68,0000.17
2022-11-10 08:24:00,,0819.3,5.02,0.00,22.1,21.3,00.0,31.0,24.0,13.8,0000.0,0005.42,0000.68,0000.17
2022-11-10 08:25:00,,0819.5,4.98,0.00,22.2,22.1,00.0,31.0,24.2,13.8,0000.0,0006.49,0000.70,0000.17
2022-11-10 08:26:00,,0819.4,5.01,0.00,22.3,21.9,00.0,31.0,24.3,13.8,0000.0,0006.75,0000.75,0000.17
2022-11-10 08:27:00,,0819.4,5.00,0.00,22.3,21.5,00.0,31.1,24.2,13.8,0000.0,0006.71,0000.76,0000.17
2022-11-10 08:28:00,,0819.5,4.99,0.00,22.3,21.2,00.0,31.1,24.1,13.7,0000.0,0006.55,0000.69,0000.17
2022-11-10 08:29:00,,0819.5,4.99,0.00,22.2,21.0,00.0,31.1,24.0,13.8,0000.0,0005.70,0000.58,0000.17
2022-11-10 08:30:00,,0819.6,5.01,0.00,22.2,20.8,00.0,31.1,24.0,13.9,0000.0,0005.08,0000.59,0000.18
2022-11-10 08:31:00,,0819.6,5.01,0.00,22.2,20.6,00.0,31.1,23.9,13.9,0000.0,0004.12,0000.57,0000.18
2022-11-10 08:32:00,,0819.7,4.99,0.00,22.1,20.5,00.0,31.1,23.8,13.8,0000.0,0003.65,0000.54,0000.18
2022-11-10 08:33:00,,0819.7,4.98,0.00,22.1,20.3,00.0,31.0,23.8,13.7,0000.0,0003.61,0000.52,0000.18
2022-11-10 08:34:00,,0819.7,5.01,0.00,22.0,20.2,00.0,31.0,23.7,13.7,0000.0,0002.88,0000.50,0000.18
2022-11-10 08:35:00,,0819.7,5.01,0.00,22.0,20.1,00.0,31.0,23.6,13.7,0000.0,0002.52,0000.50,0000.18
2022-11-10 08:36:00,,0819.8,5.01,0.00,22.0,20.0,00.0,31.0,23.5,13.6,0000.0,0001.55,0000.49,0000.19
2022-11-10 08:37:00,,0819.8,5.00,0.00,21.9,20.2,00.0,30.9,23.5,13.7,0000.0,0001.29,0000.46,0000.19
2022-11-10 08:38:00,,0819.8,5.00,0.00,22.0,21.3,00.0,30.9,23.8,13.6,0000.0,0001.20,0000.43,0000.19
2022-11-10 08:39:00,,0819.8,5.00,0.00,22.1,22.0,00.0,30.9,24.1,13.4,0000.0,0001.21,0000.45,0000.18
2022-11-10 08:40:00,,0819.9,4.98,0.00,22.2,21.7,00.0,30.9,24.1,13.3,0000.0,0001.04,0000.42,0000.17
2022-11-10 08:41:00,,0819.8,4.98,0.00,22.2,21.4,00.0,31.0,24.0,13.3,0000.0,0000.91,0000.37,0000.16
2022-11-10 08:42:00,,0819.9,5.01,0.00,22.1,21.1,00.0,31.0,23.9,13.3,0000.0,0000.97,0000.38,0000.16
2022-11-10 08:43:00,,0819.9,5.00,0.00,22.1,20.8,00.0,31.0,23.9,13.4,0000.0,0001.09,0000.41,0000.16
2022-11-10 08:44:00,,0819.9,5.00,0.00,22.1,20.6,00.0,31.0,23.8,13.5,0000.0,0001.09,0000.41,0000.16
2022-11-10 08:45:00,,0819.9,5.00,0.00,22.0,20.4,00.0,31.0,23.7,13.5,0000.0,0001.56,0000.42,0000.15
2022-11-10 08:46:00,,0820.0,4.99,0.00,22.0,20.3,00.0,31.0,23.7,13.4,0000.0,0001.86,0000.45,0000.15
2022-11-10 08:47:00,,0819.9,5.00,0.00,21.9,20.2,00.0,30.9,23.6,13.5,0000.0,0001.85,0000.44,0000.15
2022-11-10 08:48:00,,0820.0,5.00,0.00,21.9,20.1,00.0,30.9,23.6,13.4,0000.0,0001.84,0000.45,0000.14
2022-11-10 08:49:00,,0819.9,5.00,0.00,21.9,20.2,00.0,30.9,23.5,13.4,0000.0,0001.78,0000.44,0000.15
2022-11-10 08:50:00,,0819.9,5.02,0.00,21.9,21.1,00.0,30.8,23.8,13.5,0000.0,0001.69,0000.41,0000.15
2022-11-10 08:51:00,,0819.9,5.00,0.00,22.0,22.1,00.0,30.8,24.1,13.5,0000.0,0001.61,0000.41,0000.15
2022-11-10 08:52:00,,0820.0,4.99,0.00,22.1,21.9,00.0,30.9,24.1,13.4,0000.0,0001.65,0000.42,0000.15
2022-11-10 08:53:00,,0820.0,5.01,0.00,22.1,21.5,00.0,30.9,24.1,13.4,0000.0,0001.59,0000.41,0000.15
2022-11-10 08:54:00,,0820.0,5.00,0.00,22.1,21.2,00.0,30.9,24.0,13.5,0000.0,0001.53,0000.40,0000.15
2022-11-10 08:55:00,,0820.2,5.00,0.00,22.1,20.9,00.0,30.9,23.9,13.6,0000.0,0001.69,0000.40,0000.15
2022-11-10 08:56:00,,0820.2,5.01,0.00,22.1,20.7,00.0,31.0,23.8,13.5,0000.0,0001.64,0000.40,0000.15
2022-11-10 08:57:00,,0820.2,4.99,0.00,22.0,20.6,00.0,31.0,23.7,13.6,0000.0,0001.34,0000.36,0000.15
2022-11-10 08:58:00,,0820.2,4.99,0.00,22.0,20.5,00.0,31.0,23.7,13.6,0000.0,0001.25,0000.33,0000.16
2022-11-10 08:59:00,,0820.2,5.01,0.00,22.0,20.4,00.0,31.0,23.7,13.6,0000.0,0001.25,0000.32,0000.15
